Regional Weather Roundup
Issued by NWS

Home | Current Version | Previous Version | Graphics & Text | Print | Product List | Glossary On
Versions: 1 2 3 4 5 6 7 8 9 10 11 12 13 14 15 16 17 18 19 20 21 22 23 24 25 26 27 28 29 30 31 32 33 34 35 36 37 38 39 40 41 42 43 44 45 46 47 48 49 50
000
ASUS43 KFSD 181302
RWRSD

WEATHER ROUNDUP FOR SOUTH DAKOTA
NATIONAL WEATHER SERVICE SIOUX FALLS SD
800 AM CDT SAT APR 18 2015

NOTE: "FAIR" INDICATES FEW OR NO CLOUDS BELOW 12,000 FEET WITH NO
SIGNIFICANT WEATHER AND/OR OBSTRUCTIONS TO VISIBILITY.


SDZ001>005-009-010-012>017-181400-
NORTHWEST AND NORTH CENTRAL SOUTH DAKOTA

CITY           SKY/WX    TMP DP  RH WIND       PRES   REMARKS
BUFFALO          N/A     43  34  70 CALM      29.94F
FAITH            N/A     48  37  65 NE8       30.01S
MOBRIDGE       CLOUDY    51  26  37 E6        29.99S
$$

SDZ012>016-024>037-041>051-057-063-072>074-181400-
SOUTHWEST AND SOUTH CENTRAL SOUTH DAKOTA

CITY           SKY/WX    TMP DP  RH WIND       PRES   REMARKS
RAPID CTY ARPT CLOUDY    47  45  93 NW5       30.00F
PIERRE         CLOUDY    51  32  48 NE6       29.98S
CUSTER         LGT RAIN  40  38  93 NE7       30.00S FOG
ELLSWORTH AFB  DRIZZLE   47  47 100 NW6       30.00
PHILIP         CLOUDY    50  45  83 NE7       29.98R
PINE RIDGE     LGT RAIN  46  42  86 E13G23    29.95F FOG
WINNER         LGT RAIN  51  39  63 SE5       29.97R
$$

SDZ004>011-016>023-039-040-181400-
NORTHEAST SOUTH DAKOTA

CITY           SKY/WX    TMP DP  RH WIND       PRES   REMARKS
ABERDEEN       CLOUDY    44  28  53 NE7       30.03F
WATERTOWN      MOSUNNY   50  27  40 E8        30.04R
BROOKINGS      MOSUNNY   55  23  28 E9        30.03S
SISSETON         N/A     44  27  51 CALM      30.07S
$$

SDZ017-020-022-023-036>040-048>070-181400-
SOUTHEAST SOUTH DAKOTA

CITY           SKY/WX    TMP DP  RH WIND       PRES   REMARKS
SIOUX FALLS    CLOUDY    54  36  50 NE10      30.00F
HURON          PTSUNNY   52  30  43 NE5       30.00R
MITCHELL       CLOUDY    57  28  33 E8        29.98F
YANKTON        CLOUDY    55  36  47 E9        29.95S
$$

ABBREVIATIONS USED IN REMARKS
   TC - TEMPERATURE IN CELSIUS
  WCI - WIND CHILL INDEX
   HX - HEAT INDEX
  VSB - VISIBILITY




USA.gov is the U.S. government's official web portal to all federal, state and local government web resources and services.